Cleveland Burke, OH

11:51 PM EDT on May 25, 2017 (GMT -0400)
Burke Lakefront

Weather History for KBKL - May, 2013

Change the Weather History Date:

Sunday, May 19, 2013

  Actual Average Record
Temperature  
Mean Temperature 68 °F -  
Max Temperature 82 °F 65 °F 82 °F (1998)
Min Temperature 57 °F 50 °F 41 °F (2002)
Cooling Degree Days 4    
Growing Degree Days 18 (Base 50)    
Moisture  
Dew Point 60 °F    
Average Humidity 72    
Maximum Humidity 84    
Minimum Humidity 56    
Precipitation  
Precipitation 0.00 in - - ()
Sea Level Pressure  
Sea Level Pressure 29.99 in    
Wind  
Wind Speed 8 mph (SE)    
Max Wind Speed 13 mph    
Max Gust Speed 20 mph    
Visibility 10 miles    
Events      
Averages and records for this station are not official NWS values.
T = Trace of Precipitation, MM = Missing Value Source: NWS Daily Summary

Daily Weather History Graph

Daily Weather History Graph

Search for Another Location

Airport or City:

Trip Planner

Search our weather history database for the weather conditions in past years. The results will help you decide how hot, cold, wet, or windy it might be!

Date:

Astronomy

May. 19, 2013 Rise Set
Actual Time 6:03 AM EDT 8:43 PM EDT
Civil Twilight 5:31 AM EDT 9:15 PM EDT
Nautical Twilight 4:51 AM EDT 9:55 PM EDT
Astronomical Twilight 4:06 AM EDT 10:41 PM EDT
Moon 2:42 PM EDT (5/19) 2:31 AM EDT (5/19)
Length of Visible Light 15h 43m
Length of Day
14h 39m
Waxing Gibbous, 65% of the Moon is Illuminated
May 19
Waxing Gibbous
May 25
Full
May 31
Last Quarter
Jun 8
New
Jun 16
First Quarter

Hourly Weather History & Observations

Time (EDT) Temp. Heat Index Dew Point Humidity Pressure Visibility Wind Dir Wind Speed Gust Speed Precip Events Conditions
12:53 AM 57.9 °F - 53.1 °F 84% 30.02 in 10.0 mi Calm Calm - N/A   Clear
1:53 AM 68.0 °F - 57.0 °F 68% 30.01 in 10.0 mi SSE 9.2 mph - N/A   Clear
2:53 AM 66.9 °F - 57.9 °F 73% 30.00 in 10.0 mi SSE 9.2 mph - N/A   Clear
3:53 AM 66.9 °F - 59.0 °F 76% 30.00 in 10.0 mi SSE 8.1 mph - N/A   Clear
4:53 AM 66.0 °F - 59.0 °F 78% 30.01 in 10.0 mi SE 11.5 mph - N/A   Clear
6:53 AM 64.9 °F - 59.0 °F 81% 30.04 in 10.0 mi SSE 11.5 mph - N/A   Mostly Cloudy
8:53 AM 68.0 °F - 60.1 °F 76% 30.04 in 10.0 mi SSE 12.7 mph 19.6 mph N/A   Scattered Clouds
9:53 AM 72.0 °F - 61.0 °F 68% 30.02 in 10.0 mi SSE 11.5 mph - N/A   Clear
10:53 AM 75.0 °F - 62.1 °F 64% 30.02 in 10.0 mi South 11.5 mph - N/A   Clear
11:53 AM 79.0 °F - 63.0 °F 58% 30.00 in 10.0 mi SE 9.2 mph - N/A   Clear
12:53 PM 80.1 °F 81.5 °F 63.0 °F 56% 30.00 in 10.0 mi ESE 6.9 mph - N/A   Partly Cloudy
1:53 PM 73.0 °F - 62.1 °F 68% 29.97 in 10.0 mi NE 6.9 mph - N/A   Mostly Cloudy
4:53 PM 66.0 °F - 60.1 °F 81% 29.96 in 10.0 mi NE 11.5 mph - N/A   Mostly Cloudy
5:53 PM 64.9 °F - 59.0 °F 81% 29.95 in 10.0 mi NE 10.4 mph - N/A   Mostly Cloudy
6:53 PM 64.0 °F - 59.0 °F 84% 29.93 in 10.0 mi NE 11.5 mph - N/A   Mostly Cloudy
7:53 PM 64.0 °F - 59.0 °F 84% 29.93 in 10.0 mi NE 9.2 mph - N/A   Scattered Clouds
8:53 PM 78.1 °F - 61.0 °F 56% 29.94 in 10.0 mi SSE 8.1 mph - N/A   Clear
9:53 PM 75.9 °F - 62.1 °F 62% 29.95 in 10.0 mi SSE 8.1 mph - N/A   Clear
10:53 PM 75.0 °F - 62.1 °F 64% 29.94 in 10.0 mi SSE 9.2 mph - N/A   Clear